| time (UTC) | temp F | wind direction | speed MPH | gust MPH | rain 1hr in | rain 24hr in | rain mn in | humidity % | barometer mb |
| 20260503025042 | 72 | 0 | 2.0 | 5.0 | 0.19 | 0.28 | 0.28 | 90 | 1014.1 |
| 20260503024601 | 72 | 182 | 0.0 | 3.0 | 0.19 | 0.28 | 0.28 | 90 | 1014.4 |
| 20260503024041 | 72 | 199 | 1.0 | 3.0 | 0.19 | 0.28 | 0.28 | 90 | 1014.7 |
| 20260503023542 | 72 | 193 | 0.0 | 3.0 | 0.18 | 0.27 | 0.27 | 90 | 1015.0 |
| 20260503023057 | 73 | 203 | 0.0 | 3.0 | 0.18 | 0.27 | 0.27 | 90 | 1014.6 |
| 20260503022542 | 73 | 0 | 0.0 | 3.0 | 0.18 | 0.26 | 0.26 | 90 | 1014.4 |
| 20260503022040 | 73 | 146 | 1.0 | 3.0 | 0.19 | 0.26 | 0.26 | 90 | 1014.9 |
| 20260503021610 | 73 | 0 | 0.0 | 2.0 | 0.15 | 0.22 | 0.22 | 90 | 1015.5 |
| 20260503021042 | 73 | 0 | 0.0 | 2.0 | 0.04 | 0.11 | 0.11 | 90 | 1015.4 |
| 20260503020542 | 73 | 0 | 0.0 | 2.0 | 0.02 | 0.09 | 0.09 | 90 | 1015.4 |
| 20260503020058 | 73 | 238 | 0.0 | 1.0 | 0.02 | 0.09 | 0.09 | 90 | 1014.9 |
| 20260503015542 | 73 | 0 | 0.0 | 2.0 | 0.02 | 0.09 | 0.09 | 90 | 1014.8 |
| 20260503015041 | 73 | 0 | 0.0 | 2.0 | 0.02 | 0.09 | 0.09 | 90 | 1014.8 |
| 20260503014553 | 74 | 0 | 0.0 | 1.0 | 0.03 | 0.09 | 0.09 | 90 | 1014.6 |
| 20260503014041 | 74 | 0 | 0.0 | 2.0 | 0.03 | 0.09 | 0.09 | 90 | 1014.4 |
| 20260503013543 | 74 | 0 | 0.0 | 2.0 | 0.03 | 0.09 | 0.09 | 90 | 1014.3 |
| 20260503013051 | 74 | 0 | 0.0 | 1.0 | 0.03 | 0.09 | 0.09 | 90 | 1014.3 |
| 20260503012542 | 74 | 0 | 0.0 | 0.0 | 0.02 | 0.08 | 0.08 | 90 | 1014.3 |
| 20260503012043 | 74 | 0 | 0.0 | 1.0 | 0.01 | 0.07 | 0.07 | 90 | 1014.3 |
| 20260503011604 | 74 | 0 | 0.0 | 1.0 | 0.01 | 0.07 | 0.07 | 90 | 1014.5 |
| 20260503011044 | 74 | 0 | 0.0 | 1.0 | 0.01 | 0.07 | 0.07 | 90 | 1014.6 |
| 20260503010543 | 74 | 0 | 0.0 | 2.0 | 0.01 | 0.07 | 0.07 | 90 | 1014.4 |
| 20260503005542 | 74 | 0 | 0.0 | 1.0 | 0.01 | 0.07 | 0.07 | 89 | 1014.4 |
| 20260503005042 | 74 | 0 | 0.0 | 2.0 | 0.01 | 0.07 | 0.07 | 90 | 1014.5 |
| 20260503004552 | 74 | 0 | 0.0 | 2.0 | 0.00 | 0.06 | 0.06 | 90 | 1014.5 |
| 20260503004108 | 74 | 192 | 0.0 | 2.0 | 0.00 | 0.06 | 0.06 | 90 | 1014.3 |
| 20260503003541 | 74 | 0 | 0.0 | 1.0 | 0.00 | 0.06 | 0.06 | 89 | 1014.2 |
| 20260503003055 | 74 | 0 | 0.0 | 1.0 | 0.00 | 0.06 | 0.06 | 89 | 1014.1 |
| 20260503002542 | 74 | 0 | 0.0 | 3.0 | 0.00 | 0.06 | 0.06 | 89 | 1014.3 |
| 20260503002041 | 74 | 0 | 0.0 | 3.0 | 0.00 | 0.06 | 0.06 | 89 | 1014.1 |
| 20260503001613 | 74 | 252 | 0.0 | 6.0 | 0.00 | 0.06 | 0.06 | 89 | 1014.1 |
| 20260503001041 | 74 | 252 | 1.0 | 6.0 | 0.00 | 0.06 | 0.06 | 89 | 1014.2 |
| 20260503000542 | 74 | 328 | 0.0 | 3.0 | 0.00 | 0.06 | 0.06 | 89 | 1014.3 |
| 20260503000113 | 74 | 0 | 0.0 | 3.0 | 0.03 | 0.06 | 0.06 | 89 | 1014.2 |
| 20260502235542 | 74 | 271 | 0.0 | 3.0 | 0.04 | 0.06 | 0.06 | 89 | 1014.2 |
| 20260502235042 | 74 | 262 | 1.0 | 4.0 | 0.06 | 0.06 | 0.06 | 89 | 1014.2 |
| 20260502234558 | 74 | 267 | 0.0 | 4.0 | 0.06 | 0.06 | 0.06 | 88 | 1014.3 |
| 20260502234042 | 74 | 0 | 2.0 | 4.0 | 0.06 | 0.06 | 0.06 | 88 | 1014.2 |
| 20260502233542 | 74 | 279 | 0.0 | 3.0 | 0.06 | 0.06 | 0.06 | 88 | 1014.1 |
| 20260502233050 | 74 | 228 | 1.0 | 4.0 | 0.06 | 0.06 | 0.06 | 88 | 1014.2 |
| 20260502232541 | 74 | 0 | 0.0 | 4.0 | 0.06 | 0.06 | 0.06 | 87 | 1014.1 |
| 20260502232040 | 74 | 0 | 0.0 | 5.0 | 0.06 | 0.06 | 0.06 | 87 | 1014.0 |
| 20260502231553 | 74 | 294 | 1.0 | 7.0 | 0.06 | 0.06 | 0.06 | 87 | 1014.1 |
| 20260502231039 | 75 | 360 | 0.0 | 8.0 | 0.06 | 0.06 | 0.06 | 86 | 1013.9 |
| 20260502230541 | 75 | 284 | 1.0 | 8.0 | 0.06 | 0.06 | 0.06 | 86 | 1014.1 |
| 20260502230049 | 76 | 341 | 1.0 | 8.0 | 0.03 | 0.03 | 0.03 | 85 | 1014.0 |
| 20260502225542 | 77 | 290 | 2.0 | 15.0 | 0.02 | 0.02 | 0.02 | 83 | 1013.9 |
| 20260502225042 | 79 | 234 | 4.0 | 16.0 | 0.00 | 0.00 | 0.00 | 80 | 1013.8 |
| 20260502224554 | 81 | 188 | 7.0 | 16.0 | 0.00 | 0.00 | 0.00 | 80 | 1013.6 |
| 20260502224042 | 83 | 242 | 2.0 | 9.0 | 0.00 | 0.00 | 0.00 | 84 | 1013.0 |
| 20260502223542 | 83 | 209 | 2.0 | 9.0 | 0.00 | 0.00 | 0.00 | 84 | 1012.8 |
| 20260502223049 | 83 | 221 | 3.0 | 10.0 | 0.00 | 0.00 | 0.00 | 84 | 1012.7 |
| 20260502222542 | 83 | 227 | 3.0 | 10.0 | 0.00 | 0.00 | 0.00 | 84 | 1012.6 |
| 20260502222045 | 83 | 224 | 3.0 | 10.0 | 0.00 | 0.00 | 0.00 | 84 | 1012.5 |
| 20260502221549 | 83 | 211 | 4.0 | 10.0 | 0.00 | 0.00 | 0.00 | 84 | 1012.7 |
| 20260502221040 | 83 | 182 | 1.0 | 10.0 | 0.00 | 0.00 | 0.00 | 84 | 1012.6 |
| 20260502220543 | 83 | 240 | 3.0 | 10.0 | 0.00 | 0.00 | 0.00 | 84 | 1012.6 |
| 20260502220133 | 83 | 225 | 2.0 | 13.0 | 0.00 | 0.00 | 0.00 | 84 | 1012.7 |
| 20260502215540 | 83 | 244 | 4.0 | 13.0 | 0.00 | 0.00 | 0.00 | 84 | 1012.6 |
| 20260502215039 | 83 | 233 | 2.0 | 8.0 | 0.00 | 0.00 | 0.00 | 84 | 1012.7 |
| 20260502214550 | 83 | 232 | 3.0 | 8.0 | 0.00 | 0.00 | 0.00 | 84 | 1012.8 |
| 20260502214038 | 83 | 178 | 2.0 | 8.0 | 0.00 | 0.00 | 0.00 | 84 | 1012.7 |
| 20260502213540 | 83 | 225 | 3.0 | 8.0 | 0.00 | 0.00 | 0.00 | 83 | 1012.7 |
| 20260502213048 | 83 | 250 | 3.0 | 8.0 | 0.00 | 0.00 | 0.00 | 83 | 1012.6 |
| 20260502212540 | 84 | 248 | 3.0 | 8.0 | 0.00 | 0.00 | 0.00 | 83 | 1012.4 |
| 20260502212042 | 84 | 202 | 2.0 | 9.0 | 0.00 | 0.00 | 0.00 | 83 | 1012.2 |
| 20260502211545 | 83 | 186 | 4.0 | 9.0 | 0.00 | 0.00 | 0.00 | 83 | 1012.3 |
| 20260502211042 | 83 | 173 | 3.0 | 11.0 | 0.00 | 0.00 | 0.00 | 83 | 1012.2 |
| 20260502210541 | 84 | 210 | 4.0 | 11.0 | 0.00 | 0.00 | 0.00 | 83 | 1012.1 |
| 20260502210100 | 84 | 261 | 3.0 | 10.0 | 0.00 | 0.00 | 0.00 | 82 | 1012.2 |
| 20260502205543 | 84 | 198 | 3.0 | 12.0 | 0.00 | 0.00 | 0.00 | 82 | 1012.2 |
| 20260502205042 | 85 | 211 | 4.0 | 12.0 | 0.00 | 0.00 | 0.00 | 82 | 1012.2 |
| 20260502204606 | 85 | 284 | 4.0 | 9.0 | 0.00 | 0.00 | 0.00 | 81 | 1012.3 |
| 20260502204042 | 85 | 209 | 4.0 | 10.0 | 0.00 | 0.00 | 0.00 | 81 | 1012.2 |
| 20260502203541 | 86 | 190 | 3.0 | 10.0 | 0.00 | 0.00 | 0.00 | 81 | 1012.1 |
| 20260502203101 | 86 | 180 | 3.0 | 11.0 | 0.00 | 0.00 | 0.00 | 80 | 1012.2 |
| 20260502202545 | 86 | 202 | 5.0 | 11.0 | 0.00 | 0.00 | 0.00 | 79 | 1012.0 |
| 20260502202040 | 87 | 224 | 2.0 | 9.0 | 0.00 | 0.00 | 0.00 | 79 | 1012.2 |
| 20260502201553 | 88 | 225 | 3.0 | 9.0 | 0.00 | 0.00 | 0.00 | 77 | 1012.2 |
| 20260502201042 | 88 | 270 | 3.0 | 10.0 | 0.00 | 0.00 | 0.00 | 78 | 1012.3 |
| 20260502200543 | 88 | 172 | 3.0 | 11.0 | 0.00 | 0.00 | 0.00 | 79 | 1012.1 |
| 20260502200053 | 87 | 182 | 5.0 | 11.0 | 0.00 | 0.00 | 0.00 | 77 | 1012.0 |
| 20260502195541 | 88 | 221 | 3.0 | 10.0 | 0.00 | 0.00 | 0.00 | 77 | 1011.9 |
| 20260502195041 | 88 | 192 | 4.0 | 9.0 | 0.00 | 0.00 | 0.00 | 75 | 1011.8 |
| 20260502194556 | 88 | 252 | 4.0 | 9.0 | 0.00 | 0.00 | 0.00 | 76 | 1012.0 |
| 20260502194042 | 88 | 197 | 3.0 | 12.0 | 0.00 | 0.00 | 0.00 | 77 | 1012.1 |
| 20260502193542 | 88 | 179 | 4.0 | 13.0 | 0.00 | 0.00 | 0.00 | 77 | 1012.1 |
| 20260502193050 | 88 | 206 | 5.0 | 13.0 | 0.00 | 0.00 | 0.00 | 77 | 1012.2 |
| 20260502192541 | 89 | 180 | 4.0 | 11.0 | 0.00 | 0.00 | 0.00 | 76 | 1012.2 |
| 20260502192042 | 88 | 277 | 2.0 | 11.0 | 0.00 | 0.00 | 0.00 | 78 | 1012.4 |
| 20260502191608 | 88 | 180 | 3.0 | 9.0 | 0.00 | 0.00 | 0.00 | 78 | 1012.5 |
| 20260502191045 | 88 | 234 | 4.0 | 9.0 | 0.00 | 0.00 | 0.00 | 78 | 1012.7 |
| 20260502190541 | 88 | 147 | 3.0 | 9.0 | 0.00 | 0.00 | 0.00 | 79 | 1012.5 |
| 20260502190106 | 87 | 0 | 4.0 | 10.0 | 0.00 | 0.00 | 0.00 | 78 | 1012.9 |
| 20260502185541 | 87 | 204 | 4.0 | 11.0 | 0.00 | 0.00 | 0.00 | 80 | 1012.8 |
| 20260502185041 | 87 | 167 | 4.0 | 12.0 | 0.00 | 0.00 | 0.00 | 78 | 1012.8 |
| 20260502184553 | 88 | 213 | 3.0 | 12.0 | 0.00 | 0.00 | 0.00 | 80 | 1013.0 |
| 20260502184040 | 88 | 203 | 4.0 | 8.0 | 0.00 | 0.00 | 0.00 | 80 | 1013.0 |
| 20260502183540 | 88 | 234 | 3.0 | 8.0 | 0.00 | 0.00 | 0.00 | 80 | 1013.1 |
| 20260502183058 | 88 | 193 | 3.0 | 10.0 | 0.00 | 0.00 | 0.00 | 79 | 1013.3 |
| 20260502182542 | 87 | 155 | 4.0 | 11.0 | 0.00 | 0.00 | 0.00 | 80 | 1013.2 |
| 20260502182040 | 87 | 197 | 4.0 | 11.0 | 0.00 | 0.00 | 0.00 | 81 | 1013.3 |
| 20260502181550 | 87 | 209 | 4.0 | 11.0 | 0.00 | 0.00 | 0.00 | 81 | 1013.2 |
| 20260502181043 | 87 | 197 | 4.0 | 10.0 | 0.00 | 0.00 | 0.00 | 80 | 1013.3 |
| 20260502180540 | 87 | 260 | 3.0 | 11.0 | 0.00 | 0.00 | 0.00 | 82 | 1013.4 |
| 20260502164041 | 86 | 186 | 4.0 | 12.0 | 0.00 | 0.00 | 0.00 | 83 | 1013.7 |
| 20260502163541 | 85 | 277 | 5.0 | 12.0 | 0.00 | 0.00 | 0.00 | 83 | 1013.8 |
| 20260502163108 | 86 | 221 | 3.0 | 10.0 | 0.00 | 0.00 | 0.00 | 83 | 1013.7 |
| 20260502162541 | 85 | 187 | 4.0 | 12.0 | 0.00 | 0.00 | 0.00 | 83 | 1013.5 |
| 20260502162040 | 85 | 265 | 4.0 | 12.0 | 0.00 | 0.00 | 0.00 | 83 | 1013.5 |
| 20260502161549 | 85 | 277 | 4.0 | 12.0 | 0.00 | 0.00 | 0.00 | 83 | 1013.6 |
| 20260502161038 | 85 | 251 | 5.0 | 12.0 | 0.00 | 0.00 | 0.00 | 83 | 1013.5 |
| 20260502160541 | 86 | 200 | 3.0 | 11.0 | 0.00 | 0.00 | 0.00 | 83 | 1013.4 |
| 20260502152040 | 85 | 180 | 4.0 | 16.0 | 0.00 | 0.00 | 0.00 | 83 | 1013.2 |
| 20260502151556 | 84 | 240 | 7.0 | 16.0 | 0.00 | 0.00 | 0.00 | 83 | 1013.2 |
| 20260502151042 | 84 | 159 | 4.0 | 15.0 | 0.00 | 0.00 | 0.00 | 83 | 1013.2 |
| 20260502150540 | 84 | 238 | 6.0 | 15.0 | 0.00 | 0.00 | 0.00 | 83 | 1013.3 |
| 20260502130541 | 80 | 203 | 4.0 | 11.0 | 0.00 | 0.00 | 0.00 | 86 | 1012.5 |
| 20260502123540 | 79 | 290 | 3.0 | 7.0 | 0.00 | 0.00 | 0.00 | 88 | 1012.4 |
| 20260502123058 | 78 | 197 | 1.0 | 5.0 | 0.00 | 0.00 | 0.00 | 88 | 1012.5 |
| 20260502122541 | 77 | 185 | 2.0 | 5.0 | 0.00 | 0.00 | 0.00 | 88 | 1012.4 |
| 20260502122041 | 77 | 146 | 1.0 | 4.0 | 0.00 | 0.00 | 0.00 | 89 | 1012.4 |
| 20260502121558 | 76 | 138 | 0.0 | 3.0 | 0.00 | 0.00 | 0.00 | 89 | 1012.4 |
| 20260502121043 | 75 | 197 | 1.0 | 5.0 | 0.00 | 0.00 | 0.00 | 89 | 1012.3 |
| 20260502120542 | 75 | 119 | 0.0 | 5.0 | 0.00 | 0.00 | 0.00 | 89 | 1012.4 |
| 20260502115541 | 74 | 157 | 2.0 | 6.0 | 0.00 | 0.00 | 0.00 | 90 | 1012.4 |
| 20260502115045 | 73 | 140 | 1.0 | 4.0 | 0.00 | 0.00 | 0.00 | 89 | 1012.3 |
| 20260502114549 | 73 | 146 | 1.0 | 7.0 | 0.00 | 0.00 | 0.00 | 89 | 1012.3 |
| 20260502114041 | 73 | 165 | 1.0 | 7.0 | 0.00 | 0.00 | 0.00 | 89 | 1012.2 |
| 20260502113545 | 73 | 134 | 3.0 | 7.0 | 0.00 | 0.00 | 0.00 | 89 | 1012.3 |
| 20260502113052 | 73 | 133 | 2.0 | 5.0 | 0.00 | 0.00 | 0.00 | 90 | 1012.3 |
| 20260502112540 | 73 | 123 | 2.0 | 5.0 | 0.00 | 0.00 | 0.00 | 90 | 1012.3 |
| 20260502112040 | 73 | 142 | 2.0 | 5.0 | 0.00 | 0.00 | 0.00 | 89 | 1012.4 |
| 20260502111551 | 72 | 0 | 1.0 | 4.0 | 0.00 | 0.00 | 0.00 | 90 | 1012.4 |
| 20260502111037 | 72 | 146 | 0.0 | 3.0 | 0.00 | 0.00 | 0.00 | 90 | 1012.4 |
| 20260502110541 | 72 | 0 | 1.0 | 4.0 | 0.00 | 0.00 | 0.00 | 90 | 1012.3 |
| 20260502110050 | 72 | 144 | 1.0 | 4.0 | 0.00 | 0.00 | 0.00 | 89 | 1012.3 |
| 20260502105541 | 72 | 140 | 0.0 | 2.0 | 0.00 | 0.00 | 0.00 | 89 | 1012.3 |
| 20260502105041 | 72 | 132 | 0.0 | 3.0 | 0.00 | 0.00 | 0.00 | 89 | 1012.2 |
| 20260502104546 | 72 | 0 | 1.0 | 3.0 | 0.00 | 0.00 | 0.00 | 89 | 1012.2 |
| 20260502104041 | 72 | 123 | 1.0 | 6.0 | 0.00 | 0.00 | 0.00 | 89 | 1012.2 |
| 20260502103541 | 72 | 173 | 1.0 | 6.0 | 0.00 | 0.00 | 0.00 | 89 | 1012.1 |
| 20260502103045 | 72 | 132 | 1.0 | 5.0 | 0.00 | 0.00 | 0.00 | 89 | 1012.1 |
| 20260502102541 | 72 | 0 | 0.0 | 4.0 | 0.00 | 0.00 | 0.00 | 89 | 1012.3 |
| 20260502102041 | 72 | 138 | 1.0 | 4.0 | 0.00 | 0.00 | 0.00 | 89 | 1012.2 |
| 20260502101550 | 72 | 146 | 1.0 | 4.0 | 0.00 | 0.00 | 0.00 | 89 | 1012.3 |
| 20260502101040 | 72 | 0 | 0.0 | 4.0 | 0.00 | 0.00 | 0.00 | 89 | 1012.2 |
| 20260502100540 | 72 | 0 | 1.0 | 4.0 | 0.00 | 0.00 | 0.00 | 89 | 1012.4 |
| 20260502091040 | 72 | 166 | 1.0 | 5.0 | 0.00 | 0.00 | 0.00 | 88 | 1012.5 |
| 20260502090540 | 72 | 144 | 2.0 | 4.0 | 0.00 | 0.00 | 0.00 | 88 | 1012.6 |
| 20260502071046 | 71 | 0 | 0.0 | 0.0 | 0.00 | 0.00 | 0.00 | 87 | 1012.6 |
| 20260502070543 | 71 | 0 | 0.0 | 0.0 | 0.00 | 0.00 | 0.00 | 87 | 1012.7 |
| 20260502070059 | 71 | 0 | 0.0 | 0.0 | 0.00 | 0.00 | 0.00 | 87 | 1012.6 |
| 20260502065544 | 71 | 0 | 0.0 | 0.0 | 0.00 | 0.00 | 0.00 | 87 | 1012.6 |
| 20260502065042 | 71 | 0 | 0.0 | 0.0 | 0.00 | 0.00 | 0.00 | 87 | 1012.5 |
| 20260502064554 | 71 | 0 | 0.0 | 0.0 | 0.00 | 0.00 | 0.00 | 87 | 1012.5 |
| 20260502064042 | 71 | 0 | 0.0 | 0.0 | 0.00 | 0.00 | 0.00 | 87 | 1012.5 |
| 20260502063545 | 71 | 0 | 0.0 | 0.0 | 0.00 | 0.00 | 0.00 | 87 | 1012.5 |
| 20260502063048 | 71 | 0 | 0.0 | 0.0 | 0.00 | 0.00 | 0.00 | 87 | 1012.7 |
| 20260502062541 | 71 | 0 | 0.0 | 0.0 | 0.00 | 0.00 | 0.00 | 87 | 1012.5 |
| 20260502062044 | 71 | 0 | 0.0 | 0.0 | 0.00 | 0.00 | 0.00 | 87 | 1012.5 |
| 20260502061551 | 71 | 0 | 0.0 | 0.0 | 0.00 | 0.00 | 0.00 | 87 | 1012.5 |
| 20260502061041 | 71 | 0 | 0.0 | 0.0 | 0.00 | 0.00 | 0.00 | 87 | 1012.5 |
| 20260502060543 | 71 | 0 | 0.0 | 0.0 | 0.00 | 0.00 | 0.00 | 87 | 1012.7 |
| 20260502060101 | 71 | 0 | 0.0 | 0.0 | 0.00 | 0.00 | 0.00 | 87 | 1012.8 |
| 20260502055541 | 71 | 0 | 0.0 | 0.0 | 0.00 | 0.00 | 0.00 | 87 | 1012.8 |
| 20260502055041 | 71 | 0 | 0.0 | 0.0 | 0.00 | 0.00 | 0.00 | 87 | 1012.7 |
| 20260502054556 | 71 | 0 | 0.0 | 0.0 | 0.00 | 0.00 | 0.00 | 87 | 1012.8 |
| 20260502054040 | 71 | 0 | 0.0 | 0.0 | 0.00 | 0.00 | 0.00 | 87 | 1012.8 |
| 20260502053541 | 71 | 0 | 0.0 | 0.0 | 0.00 | 0.00 | 0.00 | 87 | 1012.9 |
| 20260502053052 | 71 | 0 | 0.0 | 0.0 | 0.00 | 0.00 | 0.00 | 87 | 1013.0 |
| 20260502052545 | 71 | 0 | 0.0 | 0.0 | 0.00 | 0.00 | 0.00 | 87 | 1012.9 |
| 20260502052045 | 71 | 0 | 0.0 | 1.0 | 0.00 | 0.00 | 0.00 | 87 | 1013.1 |
| 20260502051553 | 71 | 0 | 0.0 | 1.0 | 0.00 | 0.00 | 0.00 | 87 | 1013.1 |
| 20260502051042 | 71 | 0 | 0.0 | 0.0 | 0.00 | 0.00 | 0.00 | 87 | 1013.2 |
| 20260502050542 | 71 | 0 | 0.0 | 0.0 | 0.00 | 0.00 | 0.00 | 86 | 1013.2 |
| 20260502050051 | 71 | 0 | 0.0 | 0.0 | 0.00 | 0.00 | 0.00 | 86 | 1013.1 |
| 20260502045546 | 71 | 0 | 0.0 | 0.0 | 0.00 | 0.00 | 0.00 | 86 | 1013.1 |
| 20260502045044 | 71 | 0 | 0.0 | 0.0 | 0.00 | 0.00 | 0.00 | 86 | 1013.1 |
| 20260502044555 | 71 | 0 | 0.0 | 0.0 | 0.00 | 0.00 | 0.00 | 86 | 1013.1 |
| 20260502044042 | 71 | 0 | 0.0 | 0.0 | 0.00 | 0.00 | 0.00 | 86 | 1013.0 |
| 20260502043541 | 71 | 0 | 0.0 | 0.0 | 0.00 | 0.00 | 0.00 | 86 | 1013.1 |
| 20260502043059 | 71 | 0 | 0.0 | 0.0 | 0.00 | 0.00 | 0.00 | 86 | 1013.1 |
| 20260502042541 | 71 | 0 | 0.0 | 0.0 | 0.00 | 0.00 | 0.00 | 85 | 1013.1 |
| 20260502042041 | 72 | 0 | 0.0 | 0.0 | 0.00 | 0.00 | 0.00 | 85 | 1013.1 |
| 20260502041552 | 72 | 0 | 0.0 | 0.0 | 0.00 | 0.00 | 0.00 | 85 | 1013.1 |
| 20260502041041 | 72 | 0 | 0.0 | 0.0 | 0.00 | 0.00 | 0.00 | 85 | 1013.0 |
| 20260502040543 | 72 | 0 | 0.0 | 0.0 | 0.00 | 0.00 | 0.00 | 85 | 1013.1 |
| 20260502040054 | 72 | 0 | 0.0 | 0.0 | 0.00 | 0.00 | 0.00 | 85 | 1013.2 |
| 20260502035544 | 72 | 0 | 0.0 | 0.0 | 0.00 | 0.00 | 0.00 | 85 | 1013.1 |
| 20260502035043 | 72 | 0 | 0.0 | 0.0 | 0.00 | 0.00 | 0.00 | 84 | 1013.2 |
| 20260502034550 | 72 | 0 | 0.0 | 0.0 | 0.00 | 0.00 | 0.00 | 84 | 1013.2 |
| 20260502034043 | 73 | 0 | 0.0 | 0.0 | 0.00 | 0.00 | 0.00 | 84 | 1013.2 |
| 20260502033541 | 73 | 0 | 0.0 | 0.0 | 0.00 | 0.00 | 0.00 | 84 | 1013.2 |
| 20260502033051 | 73 | 0 | 0.0 | 0.0 | 0.00 | 0.00 | 0.00 | 84 | 1013.2 |
| 20260502032544 | 73 | 0 | 0.0 | 0.0 | 0.00 | 0.00 | 0.00 | 84 | 1013.2 |
| 20260502032040 | 73 | 0 | 0.0 | 0.0 | 0.00 | 0.00 | 0.00 | 84 | 1013.3 |
| 20260502031553 | 74 | 0 | 0.0 | 0.0 | 0.00 | 0.00 | 0.00 | 84 | 1013.2 |
| 20260502031043 | 74 | 0 | 0.0 | 1.0 | 0.00 | 0.00 | 0.00 | 83 | 1013.3 |
| 20260502030540 | 74 | 0 | 0.0 | 1.0 | 0.00 | 0.00 | 0.00 | 83 | 1013.4 |
| 20260502030049 | 74 | 0 | 0.0 | 0.0 | 0.00 | 0.00 | 0.00 | 83 | 1013.3 |
| 20260502025540 | 74 | 0 | 0.0 | 0.0 | 0.00 | 0.00 | 0.00 | 83 | 1013.3 |